Year,Month,Day,Hour,Minute,Value (Times are PST for temperature in C)
2011,04,23,00,00,4.30
2011,04,23,00,01,4.30
2011,04,23,00,02,4.30
2011,04,23,00,03,4.30
2011,04,23,00,04,4.30
2011,04,23,00,05,4.30
2011,04,23,00,06,4.30
2011,04,23,00,07,4.30
2011,04,23,00,08,4.30
2011,04,23,00,09,4.40
2011,04,23,00,10,4.40
2011,04,23,00,11,4.40
2011,04,23,00,12,4.40
2011,04,23,00,13,4.40
2011,04,23,00,14,4.40
2011,04,23,00,15,4.50
2011,04,23,00,16,4.50
2011,04,23,00,17,4.50
2011,04,23,00,18,4.50
2011,04,23,00,19,4.50
2011,04,23,00,20,4.40
2011,04,23,00,21,4.40
2011,04,23,00,22,4.40
2011,04,23,00,23,4.50
2011,04,23,00,24,4.50
2011,04,23,00,25,4.50
2011,04,23,00,26,4.50
2011,04,23,00,27,4.50
2011,04,23,00,28,4.50
2011,04,23,00,29,4.50
2011,04,23,00,30,4.50
2011,04,23,00,31,4.40
2011,04,23,00,32,4.40
2011,04,23,00,33,4.40
2011,04,23,00,34,4.30
2011,04,23,00,35,4.30
2011,04,23,00,36,4.30
2011,04,23,00,37,4.30
2011,04,23,00,38,4.30
2011,04,23,00,39,4.30
2011,04,23,00,40,4.20
2011,04,23,00,41,4.20
2011,04,23,00,42,4.20
2011,04,23,00,43,4.20
2011,04,23,00,44,4.20
2011,04,23,00,45,4.20
2011,04,23,00,46,4.20
2011,04,23,00,47,4.20
2011,04,23,00,48,4.20
2011,04,23,00,49,4.20
2011,04,23,00,50,4.20
2011,04,23,00,51,4.20
2011,04,23,00,52,4.20
2011,04,23,00,53,4.20
2011,04,23,00,54,4.20
2011,04,23,00,55,4.20
2011,04,23,00,56,4.20
2011,04,23,00,57,4.20
2011,04,23,00,58,4.10
2011,04,23,00,59,4.10
2011,04,23,01,00,4.10
2011,04,23,01,01,4.10
2011,04,23,01,02,4.10
2011,04,23,01,03,4.10
2011,04,23,01,04,4.10
2011,04,23,01,05,4.10
2011,04,23,01,06,4.10
2011,04,23,01,07,4.10
2011,04,23,01,08,4.20
2011,04,23,01,09,4.20
2011,04,23,01,10,4.20
2011,04,23,01,11,4.20
2011,04,23,01,12,4.20
2011,04,23,01,13,4.30
2011,04,23,01,14,4.30
2011,04,23,01,15,4.30
2011,04,23,01,16,4.30
2011,04,23,01,17,4.30
2011,04,23,01,18,4.30
2011,04,23,01,19,4.30
2011,04,23,01,20,4.30
2011,04,23,01,21,4.30
2011,04,23,01,22,4.40
2011,04,23,01,23,4.40
2011,04,23,01,24,4.30
2011,04,23,01,25,4.30
2011,04,23,01,26,4.30
2011,04,23,01,27,4.30
2011,04,23,01,28,4.30
2011,04,23,01,29,4.30
2011,04,23,01,30,4.30
2011,04,23,01,31,4.30
2011,04,23,01,32,4.30
2011,04,23,01,33,4.30
2011,04,23,01,34,4.30
2011,04,23,01,35,4.30
2011,04,23,01,36,4.30
2011,04,23,01,37,4.30
2011,04,23,01,38,4.30
2011,04,23,01,39,4.30
2011,04,23,01,40,4.30
2011,04,23,01,41,4.40
2011,04,23,01,42,4.40
2011,04,23,01,43,4.40
2011,04,23,01,44,4.40
2011,04,23,01,45,4.40
2011,04,23,01,46,4.40
2011,04,23,01,47,4.40
2011,04,23,01,48,4.40
2011,04,23,01,49,4.40
2011,04,23,01,50,4.30
2011,04,23,01,51,4.30
2011,04,23,01,52,4.30
2011,04,23,01,53,4.30
2011,04,23,01,54,4.30
2011,04,23,01,55,4.30
2011,04,23,01,56,4.30
2011,04,23,01,57,4.30
2011,04,23,01,58,4.30
2011,04,23,01,59,4.30
2011,04,23,02,00,4.30
2011,04,23,02,01,4.30
2011,04,23,02,02,4.30
2011,04,23,02,03,4.30
2011,04,23,02,04,4.30
2011,04,23,02,05,4.40
2011,04,23,02,06,4.50
2011,04,23,02,07,4.50
2011,04,23,02,08,4.60
2011,04,23,02,09,4.70
2011,04,23,02,10,4.70
2011,04,23,02,11,4.70
2011,04,23,02,12,4.70
2011,04,23,02,13,4.70
2011,04,23,02,14,4.70
2011,04,23,02,15,4.70
2011,04,23,02,16,4.60
2011,04,23,02,17,4.60
2011,04,23,02,18,4.60
2011,04,23,02,19,4.60
2011,04,23,02,20,4.50
2011,04,23,02,21,4.50
2011,04,23,02,22,4.50
2011,04,23,02,23,4.50
2011,04,23,02,24,4.50
2011,04,23,02,25,4.40
2011,04,23,02,26,4.40
2011,04,23,02,27,4.40
2011,04,23,02,28,4.40
2011,04,23,02,29,4.30
2011,04,23,02,30,4.30
2011,04,23,02,31,4.30
2011,04,23,02,32,4.30
2011,04,23,02,33,4.30
2011,04,23,02,34,4.20
2011,04,23,02,35,4.20
2011,04,23,02,36,4.20
2011,04,23,02,37,4.20
2011,04,23,02,38,4.20
2011,04,23,02,39,4.20
2011,04,23,02,40,4.30
2011,04,23,02,41,4.30
2011,04,23,02,42,4.30
2011,04,23,02,43,4.30
2011,04,23,02,44,4.30
2011,04,23,02,45,4.30
2011,04,23,02,46,4.30
2011,04,23,02,47,4.40
2011,04,23,02,48,4.40
2011,04,23,02,49,4.40
2011,04,23,02,50,4.40
2011,04,23,02,51,4.40
2011,04,23,02,52,4.40
2011,04,23,02,53,4.40
2011,04,23,02,54,4.30
2011,04,23,02,55,4.30
2011,04,23,02,56,4.30
2011,04,23,02,57,4.30
2011,04,23,02,58,4.30
2011,04,23,02,59,4.30
2011,04,23,03,00,4.30
2011,04,23,03,01,4.40
2011,04,23,03,02,4.40
2011,04,23,03,03,4.40
2011,04,23,03,06,4.40
2011,04,23,03,07,4.40
2011,04,23,03,08,4.40
2011,04,23,03,09,4.40
2011,04,23,03,10,4.40
2011,04,23,03,11,4.30
2011,04,23,03,12,4.30
2011,04,23,03,13,4.30
2011,04,23,03,14,4.30
2011,04,23,03,15,4.30
2011,04,23,03,16,4.30
2011,04,23,03,17,4.30
2011,04,23,03,18,4.20
2011,04,23,03,19,4.20
2011,04,23,03,20,4.20
2011,04,23,03,21,4.20
2011,04,23,03,22,4.20
2011,04,23,03,23,4.10
2011,04,23,03,24,4.10
2011,04,23,03,25,4.10
2011,04,23,03,26,4.10
2011,04,23,03,27,4.10
2011,04,23,03,28,4.10
2011,04,23,03,29,4.10
2011,04,23,03,30,4.10
2011,04,23,03,31,4.10
2011,04,23,03,32,4.10
2011,04,23,03,33,4.10
2011,04,23,03,34,4.10
2011,04,23,03,35,4.10
2011,04,23,03,36,4.10
2011,04,23,03,37,4.20
2011,04,23,03,38,4.20
2011,04,23,03,39,4.20
2011,04,23,03,40,4.30
2011,04,23,03,41,4.30
2011,04,23,03,42,4.30
2011,04,23,03,43,4.30
2011,04,23,03,44,4.30
2011,04,23,03,45,4.30
2011,04,23,03,46,4.30
2011,04,23,03,47,4.30
2011,04,23,03,48,4.30
2011,04,23,03,49,4.30
2011,04,23,03,50,4.20
2011,04,23,03,51,4.20
2011,04,23,03,52,4.20
2011,04,23,03,53,4.20
2011,04,23,03,54,4.20
2011,04,23,03,55,4.20
2011,04,23,03,56,4.20
2011,04,23,03,57,4.10
2011,04,23,03,58,4.10
2011,04,23,03,59,4.10
2011,04,23,04,00,4.00
2011,04,23,04,01,4.00
2011,04,23,04,02,4.00
2011,04,23,04,03,4.00
2011,04,23,04,04,4.00
2011,04,23,04,05,4.00
2011,04,23,04,06,4.00
2011,04,23,04,07,4.00
2011,04,23,04,08,4.00
2011,04,23,04,09,4.10
2011,04,23,04,10,4.10
2011,04,23,04,11,4.10
2011,04,23,04,12,4.20
2011,04,23,04,13,4.20
2011,04,23,04,14,4.30
2011,04,23,04,15,4.30
2011,04,23,04,16,4.30
2011,04,23,04,17,4.40
2011,04,23,04,18,4.40
2011,04,23,04,19,4.40
2011,04,23,04,20,4.40
2011,04,23,04,21,4.40
2011,04,23,04,22,4.50
2011,04,23,04,23,4.50
2011,04,23,04,24,4.50
2011,04,23,04,25,4.50
2011,04,23,04,26,4.50
2011,04,23,04,27,4.50
2011,04,23,04,28,4.60
2011,04,23,04,29,4.60
2011,04,23,04,30,4.60
2011,04,23,04,31,4.60
2011,04,23,04,32,4.60
2011,04,23,04,33,4.60
2011,04,23,04,34,4.60
2011,04,23,04,35,4.70
2011,04,23,04,36,4.70
2011,04,23,04,37,4.60
2011,04,23,04,38,4.60
2011,04,23,04,39,4.60
2011,04,23,04,40,4.60
2011,04,23,04,41,4.50
2011,04,23,04,42,4.50
2011,04,23,04,43,4.50
2011,04,23,04,44,4.50
2011,04,23,04,45,4.40
2011,04,23,04,46,4.40
2011,04,23,04,47,4.40
2011,04,23,04,48,4.40
2011,04,23,04,49,4.30
2011,04,23,04,50,4.30
2011,04,23,04,51,4.30
2011,04,23,04,52,4.20
2011,04,23,04,53,4.20
2011,04,23,04,54,4.20
2011,04,23,04,55,4.20
2011,04,23,04,56,4.20
2011,04,23,04,57,4.20
2011,04,23,04,58,4.20
2011,04,23,04,59,4.20
2011,04,23,05,00,4.20
2011,04,23,05,01,4.20
2011,04,23,05,02,4.10
2011,04,23,05,03,4.10
2011,04,23,05,04,4.10
2011,04,23,05,05,4.00
2011,04,23,05,06,4.00
2011,04,23,05,07,3.90
2011,04,23,05,08,3.90
2011,04,23,05,09,3.80
2011,04,23,05,10,3.80
2011,04,23,05,11,3.70
2011,04,23,05,12,3.60
2011,04,23,05,13,3.60
2011,04,23,05,14,3.50
2011,04,23,05,15,3.40
2011,04,23,05,16,3.40
2011,04,23,05,17,3.30
2011,04,23,05,18,3.30
2011,04,23,05,19,3.20
2011,04,23,05,20,3.20
2011,04,23,05,21,3.20
2011,04,23,05,22,3.20
2011,04,23,05,23,3.10
2011,04,23,05,24,3.10
2011,04,23,05,25,3.10
2011,04,23,05,26,3.10
2011,04,23,05,27,3.00
2011,04,23,05,28,3.00
2011,04,23,05,29,3.00
2011,04,23,05,30,2.90
2011,04,23,05,31,2.90
2011,04,23,05,32,2.90
2011,04,23,05,33,2.90
2011,04,23,05,34,2.90
2011,04,23,05,35,3.00
2011,04,23,05,36,3.00
2011,04,23,05,37,3.00
2011,04,23,05,38,3.00
2011,04,23,05,39,3.00
2011,04,23,05,40,3.00
2011,04,23,05,41,3.00
2011,04,23,05,42,3.00
2011,04,23,05,43,3.00
2011,04,23,05,44,3.00
2011,04,23,05,45,3.10
2011,04,23,05,46,3.10
2011,04,23,05,47,3.20
2011,04,23,05,48,3.20
2011,04,23,05,49,3.20
2011,04,23,05,50,3.30
2011,04,23,05,51,3.30
2011,04,23,05,52,3.30
2011,04,23,05,53,3.30
2011,04,23,05,54,3.40
2011,04,23,05,55,3.40
2011,04,23,05,56,3.50
2011,04,23,05,57,3.50
2011,04,23,05,58,3.60
2011,04,23,05,59,3.60
2011,04,23,06,00,3.70
2011,04,23,06,01,3.70
2011,04,23,06,02,3.80
2011,04,23,06,03,3.80
2011,04,23,06,04,3.80
2011,04,23,06,05,3.80
2011,04,23,06,06,3.80
2011,04,23,06,07,3.80
2011,04,23,06,08,3.80
2011,04,23,06,09,3.80
2011,04,23,06,10,3.90
2011,04,23,06,11,3.90
2011,04,23,06,12,3.90
2011,04,23,06,13,3.80
2011,04,23,06,14,3.80
2011,04,23,06,15,3.80
2011,04,23,06,16,3.80
2011,04,23,06,17,3.80
2011,04,23,06,18,3.80
2011,04,23,06,19,3.70
2011,04,23,06,20,3.70
2011,04,23,06,21,3.70
2011,04,23,06,22,3.70
2011,04,23,06,23,3.60
2011,04,23,06,24,3.60
2011,04,23,06,25,3.60
2011,04,23,06,26,3.60
2011,04,23,06,27,3.60
2011,04,23,06,28,3.60
2011,04,23,06,29,3.60
2011,04,23,06,30,3.60
2011,04,23,06,31,3.60
2011,04,23,06,32,3.70
2011,04,23,06,33,3.70
2011,04,23,06,34,3.70
2011,04,23,06,35,3.70
2011,04,23,06,36,3.70
2011,04,23,06,37,3.70
2011,04,23,06,38,3.70
2011,04,23,06,39,3.70
2011,04,23,06,40,3.70
2011,04,23,06,41,3.70
2011,04,23,06,42,3.70
2011,04,23,06,43,3.60
2011,04,23,06,44,3.60
2011,04,23,06,45,3.60
2011,04,23,06,46,3.60
2011,04,23,06,47,3.60
2011,04,23,06,48,3.50
2011,04,23,06,49,3.50
2011,04,23,06,50,3.60
2011,04,23,06,51,3.50
2011,04,23,06,52,3.50
2011,04,23,06,53,3.50
2011,04,23,06,54,3.50
2011,04,23,06,55,3.50
2011,04,23,06,56,3.50
2011,04,23,06,57,3.40
2011,04,23,06,58,3.40
2011,04,23,06,59,3.40
2011,04,23,07,00,3.50
2011,04,23,07,01,3.40
2011,04,23,07,02,3.50
2011,04,23,07,03,3.50
2011,04,23,07,04,3.50
2011,04,23,07,05,3.50
2011,04,23,07,06,3.50
2011,04,23,07,07,3.50
2011,04,23,07,08,3.60
2011,04,23,07,09,3.60
2011,04,23,07,10,3.60
2011,04,23,07,11,3.60
2011,04,23,07,12,3.60
2011,04,23,07,13,3.60
2011,04,23,07,14,3.60
2011,04,23,07,15,3.60
2011,04,23,07,16,3.60
2011,04,23,07,17,3.60
2011,04,23,07,18,3.70
2011,04,23,07,19,3.70
2011,04,23,07,20,3.70
2011,04,23,07,21,3.70
2011,04,23,07,22,3.70
2011,04,23,07,23,3.80
2011,04,23,07,24,3.80
2011,04,23,07,25,3.80
2011,04,23,07,26,3.90
2011,04,23,07,27,3.90
2011,04,23,07,28,4.00
2011,04,23,07,29,4.10
2011,04,23,07,30,4.10
2011,04,23,07,31,4.20
2011,04,23,07,32,4.20
2011,04,23,07,33,4.30
2011,04,23,07,34,4.30
2011,04,23,07,35,4.40
2011,04,23,07,36,4.50
2011,04,23,07,37,4.50
2011,04,23,07,38,4.60
2011,04,23,07,39,4.60
2011,04,23,07,40,4.70
2011,04,23,07,41,4.80
2011,04,23,07,42,4.80
2011,04,23,07,43,4.80
2011,04,23,07,44,4.90
2011,04,23,07,45,5.00
2011,04,23,07,46,5.00
2011,04,23,07,47,5.10
2011,04,23,07,48,5.20
2011,04,23,07,49,5.20
2011,04,23,07,50,5.30
2011,04,23,07,51,5.40
2011,04,23,07,52,5.40
2011,04,23,07,53,5.50
2011,04,23,07,54,5.50
2011,04,23,07,55,5.60
2011,04,23,07,56,5.70
2011,04,23,07,57,5.70
2011,04,23,07,58,5.80
2011,04,23,07,59,5.80
2011,04,23,08,00,5.90
2011,04,23,08,01,5.90
2011,04,23,08,02,6.00
2011,04,23,08,03,6.00
2011,04,23,08,04,6.10
2011,04,23,08,05,6.10
2011,04,23,08,06,6.10
2011,04,23,08,07,6.20
2011,04,23,08,08,6.20
2011,04,23,08,09,6.20
2011,04,23,08,10,6.20
2011,04,23,08,11,6.20
2011,04,23,08,12,6.30
2011,04,23,08,13,6.30
2011,04,23,08,14,6.30
2011,04,23,08,15,6.30
2011,04,23,08,16,6.30
2011,04,23,08,17,6.30
2011,04,23,08,18,6.30
2011,04,23,08,19,6.30
2011,04,23,08,20,6.30
2011,04,23,08,21,6.30
2011,04,23,08,22,6.30
2011,04,23,08,23,6.40
2011,04,23,08,24,6.50
2011,04,23,08,25,6.50
2011,04,23,08,26,6.60
2011,04,23,08,27,6.60
2011,04,23,08,28,6.70
2011,04,23,08,29,6.70
2011,04,23,08,30,6.80
2011,04,23,08,31,6.80
2011,04,23,08,32,6.80
2011,04,23,08,33,6.80
2011,04,23,08,34,6.80
2011,04,23,08,35,6.80
2011,04,23,08,36,6.90
2011,04,23,08,37,6.90
2011,04,23,08,38,6.90
2011,04,23,08,39,6.90
2011,04,23,08,40,6.90
2011,04,23,08,41,6.90
2011,04,23,08,42,7.00
2011,04,23,08,43,7.00
2011,04,23,08,44,7.00
2011,04,23,08,45,7.00
2011,04,23,08,46,7.00
2011,04,23,08,47,7.00
2011,04,23,08,48,6.90
2011,04,23,08,49,6.90
2011,04,23,08,50,7.00
2011,04,23,08,51,7.00
2011,04,23,08,52,7.00
2011,04,23,08,53,7.00
2011,04,23,08,54,7.00
2011,04,23,08,55,7.10
2011,04,23,08,56,7.10
2011,04,23,08,57,7.10
2011,04,23,08,58,7.10
2011,04,23,08,59,7.20
2011,04,23,09,00,7.20
2011,04,23,09,01,7.30
2011,04,23,09,02,7.30
2011,04,23,09,03,7.40
2011,04,23,09,04,7.50
2011,04,23,09,05,7.60
2011,04,23,09,06,7.70
2011,04,23,09,07,7.70
2011,04,23,09,08,7.80
2011,04,23,09,09,7.80
2011,04,23,09,10,7.80
2011,04,23,09,11,7.80
2011,04,23,09,12,7.80
2011,04,23,09,13,7.80
2011,04,23,09,14,7.90
2011,04,23,09,15,7.90
2011,04,23,09,16,7.90
2011,04,23,09,17,7.90
2011,04,23,09,18,7.90
2011,04,23,09,19,8.00
2011,04,23,09,20,8.00
2011,04,23,09,21,8.10
2011,04,23,09,22,8.10
2011,04,23,09,23,8.20
2011,04,23,09,24,8.20
2011,04,23,09,25,8.20
2011,04,23,09,26,8.20
2011,04,23,09,27,8.20
2011,04,23,09,28,8.20
2011,04,23,09,29,8.20
2011,04,23,09,30,8.20
2011,04,23,09,31,8.20
2011,04,23,09,32,8.20
2011,04,23,09,33,8.20
2011,04,23,09,34,8.30
2011,04,23,09,35,8.30
2011,04,23,09,36,8.30
2011,04,23,09,37,8.30
2011,04,23,09,38,8.40
2011,04,23,09,39,8.40
2011,04,23,09,40,8.50
2011,04,23,09,41,8.50
2011,04,23,09,42,8.60
2011,04,23,09,43,8.60
2011,04,23,09,44,8.60
2011,04,23,09,45,8.70
2011,04,23,09,46,8.70
2011,04,23,09,47,8.80
2011,04,23,09,48,8.80
2011,04,23,09,49,8.80
2011,04,23,09,50,8.80
2011,04,23,09,51,8.90
2011,04,23,09,52,8.90
2011,04,23,09,53,8.90
2011,04,23,09,54,9.00
2011,04,23,09,55,9.10
2011,04,23,09,56,9.10
2011,04,23,09,57,9.20
2011,04,23,09,58,9.20
2011,04,23,09,59,9.30
2011,04,23,10,00,9.30
2011,04,23,10,01,9.30
2011,04,23,10,02,9.30
2011,04,23,10,03,9.20
2011,04,23,10,04,9.10
2011,04,23,10,05,9.00
2011,04,23,10,06,9.00
2011,04,23,10,07,8.90
2011,04,23,10,08,8.90
2011,04,23,10,09,8.90
2011,04,23,10,10,9.00
2011,04,23,10,11,9.10
2011,04,23,10,12,9.10
2011,04,23,10,13,9.30
2011,04,23,10,14,9.30
2011,04,23,10,15,9.40
2011,04,23,10,16,9.50
2011,04,23,10,17,9.60
2011,04,23,10,18,9.70
2011,04,23,10,19,9.70
2011,04,23,10,20,9.60
2011,04,23,10,21,9.60
2011,04,23,10,22,9.40
2011,04,23,10,23,9.40
2011,04,23,10,24,9.40
2011,04,23,10,25,9.40
2011,04,23,10,26,9.50
2011,04,23,10,27,9.60
2011,04,23,10,28,9.60
2011,04,23,10,29,9.60
2011,04,23,10,30,9.60
2011,04,23,10,31,9.70
2011,04,23,10,32,9.60
2011,04,23,10,33,9.70
2011,04,23,10,34,9.80
2011,04,23,10,35,9.70
2011,04,23,10,36,9.70
2011,04,23,10,37,9.60
2011,04,23,10,38,9.60
2011,04,23,10,39,9.60
2011,04,23,10,40,9.70
2011,04,23,10,41,9.70
2011,04,23,10,42,9.70
2011,04,23,10,43,9.70
2011,04,23,10,44,9.70
2011,04,23,10,45,9.70
2011,04,23,10,46,9.80
2011,04,23,10,47,9.70
2011,04,23,10,48,9.70
2011,04,23,10,49,9.70
2011,04,23,10,50,9.70
2011,04,23,10,51,9.70
2011,04,23,10,52,9.70
2011,04,23,10,53,9.70
2011,04,23,10,54,9.80
2011,04,23,10,55,9.80
2011,04,23,10,56,9.90
2011,04,23,10,57,9.90
2011,04,23,10,58,9.90
2011,04,23,10,59,9.90
2011,04,23,11,00,10.00
2011,04,23,11,01,10.10
2011,04,23,11,02,10.20
2011,04,23,11,03,10.30
2011,04,23,11,04,10.40
2011,04,23,11,05,10.40
2011,04,23,11,06,10.30
2011,04,23,11,07,10.40
2011,04,23,11,08,10.50
2011,04,23,11,09,10.50
2011,04,23,11,10,10.60
2011,04,23,11,11,10.60
2011,04,23,11,12,10.70
2011,04,23,11,13,10.80
2011,04,23,11,14,10.80
2011,04,23,11,15,10.80
2011,04,23,11,16,10.70
2011,04,23,11,17,10.70
2011,04,23,11,18,10.60
2011,04,23,11,19,10.50
2011,04,23,11,20,10.50
2011,04,23,11,21,10.50
2011,04,23,11,22,10.60
2011,04,23,11,23,10.60
2011,04,23,11,24,10.70
2011,04,23,11,25,10.60
2011,04,23,11,26,10.70
2011,04,23,11,27,10.70
2011,04,23,11,28,10.70
2011,04,23,11,29,10.80
2011,04,23,11,30,10.80
2011,04,23,11,31,10.90
2011,04,23,11,32,11.00
2011,04,23,11,33,11.20
2011,04,23,11,34,11.30
2011,04,23,11,35,11.30
2011,04,23,11,36,11.20
2011,04,23,11,37,11.20
2011,04,23,11,38,11.20
2011,04,23,11,39,11.30
2011,04,23,11,40,11.20
2011,04,23,11,41,11.10
2011,04,23,11,42,11.00
2011,04,23,11,43,11.00
2011,04,23,11,44,11.20
2011,04,23,11,45,11.20
2011,04,23,11,46,11.30
2011,04,23,11,47,11.40
2011,04,23,11,48,11.50
2011,04,23,11,49,11.50
2011,04,23,11,50,11.20
2011,04,23,11,51,10.90
2011,04,23,11,52,10.80
2011,04,23,11,53,10.70
2011,04,23,11,54,10.70
2011,04,23,11,55,10.80
2011,04,23,11,56,10.80
2011,04,23,11,57,10.80
2011,04,23,11,58,10.90
2011,04,23,11,59,11.00
2011,04,23,12,00,11.10
2011,04,23,12,01,11.20
2011,04,23,12,02,11.30
2011,04,23,12,03,11.40
2011,04,23,12,04,11.40
2011,04,23,12,05,11.30
2011,04,23,12,06,11.20
2011,04,23,12,07,11.10
2011,04,23,12,08,11.10
2011,04,23,12,09,11.10
2011,04,23,12,10,11.30
2011,04,23,12,11,11.30
2011,04,23,12,12,11.30
2011,04,23,12,13,11.30
2011,04,23,12,14,11.30
2011,04,23,12,15,11.30
2011,04,23,12,16,11.30
2011,04,23,12,17,11.30
2011,04,23,12,18,11.40
2011,04,23,12,19,11.40
2011,04,23,12,20,11.30
2011,04,23,12,21,11.30
2011,04,23,12,22,11.30
2011,04,23,12,23,11.30
2011,04,23,12,24,11.30
2011,04,23,12,25,11.30
2011,04,23,12,26,11.30
2011,04,23,12,27,11.40
2011,04,23,12,28,11.40
2011,04,23,12,29,11.40
2011,04,23,12,30,11.40
2011,04,23,12,31,11.50
2011,04,23,12,32,11.60
2011,04,23,12,33,11.70
2011,04,23,12,34,11.70
2011,04,23,12,35,11.70
2011,04,23,12,36,11.70
2011,04,23,12,37,11.70
2011,04,23,12,38,11.70
2011,04,23,12,39,11.60
2011,04,23,12,40,11.60
2011,04,23,12,41,11.60
2011,04,23,12,42,11.70
2011,04,23,12,43,11.70
2011,04,23,12,44,11.70
2011,04,23,12,45,11.70
2011,04,23,12,46,11.70
2011,04,23,12,47,11.70
2011,04,23,12,48,11.70
2011,04,23,12,49,11.80
2011,04,23,12,50,11.80
2011,04,23,12,51,11.90
2011,04,23,12,52,11.90
2011,04,23,12,53,11.90
2011,04,23,12,54,11.90
2011,04,23,12,55,11.90
2011,04,23,12,56,12.00
2011,04,23,12,57,12.10
2011,04,23,12,58,12.10
2011,04,23,12,59,12.10
2011,04,23,13,00,12.10
2011,04,23,13,01,12.20
2011,04,23,13,02,12.10
2011,04,23,13,03,12.10
2011,04,23,13,04,12.00
2011,04,23,13,05,12.00
2011,04,23,13,06,12.00
2011,04,23,13,07,12.00
2011,04,23,13,08,11.90
2011,04,23,13,09,11.80
2011,04,23,13,10,11.70
2011,04,23,13,11,11.60
2011,04,23,13,12,11.50
2011,04,23,13,13,11.50
2011,04,23,13,14,11.60
2011,04,23,13,15,11.70
2011,04,23,13,16,11.90
2011,04,23,13,17,12.10
2011,04,23,13,18,12.20
2011,04,23,13,19,12.20
2011,04,23,13,20,12.20
2011,04,23,13,21,12.20
2011,04,23,13,22,12.10
2011,04,23,13,23,12.10
2011,04,23,13,24,12.00
2011,04,23,13,25,12.00
2011,04,23,13,26,12.00
2011,04,23,13,27,11.90
2011,04,23,13,28,11.90
2011,04,23,13,29,11.80
2011,04,23,13,30,11.90
2011,04,23,13,31,12.00
2011,04,23,13,32,12.20
2011,04,23,13,33,12.40
2011,04,23,13,34,12.40
2011,04,23,13,35,12.40
2011,04,23,13,36,12.60
2011,04,23,13,37,12.60
2011,04,23,13,38,12.50
2011,04,23,13,39,12.40
2011,04,23,13,40,12.40
2011,04,23,13,41,12.40
2011,04,23,13,42,12.40
2011,04,23,13,43,12.40
2011,04,23,13,44,12.40
2011,04,23,13,45,12.50
2011,04,23,13,46,12.40
2011,04,23,13,47,12.40
2011,04,23,13,48,12.30
2011,04,23,13,49,12.20
2011,04,23,13,50,12.20
2011,04,23,13,51,12.20
2011,04,23,13,52,12.20
2011,04,23,13,53,12.20
2011,04,23,13,54,12.20
2011,04,23,13,55,12.20
2011,04,23,13,56,12.20
2011,04,23,13,57,12.10
2011,04,23,13,58,12.10
2011,04,23,13,59,12.10
2011,04,23,14,00,12.10
2011,04,23,14,01,12.10
2011,04,23,14,02,12.00
2011,04,23,14,03,12.00
2011,04,23,14,04,12.10
2011,04,23,14,05,12.10
2011,04,23,14,06,12.20
2011,04,23,14,07,12.20
2011,04,23,14,08,12.20
2011,04,23,14,09,12.30
2011,04,23,14,10,12.30
2011,04,23,14,11,12.30
2011,04,23,14,12,12.30
2011,04,23,14,13,12.30
2011,04,23,14,14,12.30
2011,04,23,14,15,12.40
2011,04,23,14,16,12.40
2011,04,23,14,17,12.40
2011,04,23,14,18,12.50
2011,04,23,14,19,12.50
2011,04,23,14,20,12.60
2011,04,23,14,21,12.50
2011,04,23,14,22,12.40
2011,04,23,14,23,12.40
2011,04,23,14,24,12.50
2011,04,23,14,25,12.70
2011,04,23,14,26,12.70
2011,04,23,14,27,12.70
2011,04,23,14,28,12.80
2011,04,23,14,29,12.80
2011,04,23,14,30,12.80
2011,04,23,14,31,12.70
2011,04,23,14,32,12.70
2011,04,23,14,33,12.60
2011,04,23,14,34,12.50
2011,04,23,14,35,12.30
2011,04,23,14,36,12.30
2011,04,23,14,37,12.20
2011,04,23,14,38,12.20
2011,04,23,14,39,12.30
2011,04,23,14,40,12.40
2011,04,23,14,41,12.60
2011,04,23,14,42,12.70
2011,04,23,14,43,12.70
2011,04,23,14,44,12.50
2011,04,23,14,45,12.50
2011,04,23,14,46,12.50
2011,04,23,14,47,12.60
2011,04,23,14,48,12.50
2011,04,23,14,49,12.50
2011,04,23,14,50,12.50
2011,04,23,14,51,12.40
2011,04,23,14,52,12.40
2011,04,23,14,53,12.50
2011,04,23,14,54,12.50
2011,04,23,14,55,12.60
2011,04,23,14,56,12.60
2011,04,23,14,57,12.60
2011,04,23,14,58,12.60
2011,04,23,14,59,12.60
2011,04,23,15,00,12.60
2011,04,23,15,01,12.60
2011,04,23,15,02,12.60
2011,04,23,15,03,12.60
2011,04,23,15,04,12.70
2011,04,23,15,05,12.80
2011,04,23,15,06,12.80
2011,04,23,15,07,12.80
2011,04,23,15,08,12.90
2011,04,23,15,09,12.90
2011,04,23,15,10,12.80
2011,04,23,15,11,12.80
2011,04,23,15,12,12.90
2011,04,23,15,13,12.90
2011,04,23,15,14,12.90
2011,04,23,15,15,12.80
2011,04,23,15,16,12.90
2011,04,23,15,17,13.00
2011,04,23,15,18,13.20
2011,04,23,15,19,13.20
2011,04,23,15,20,13.20
2011,04,23,15,21,13.20
2011,04,23,15,22,13.20
2011,04,23,15,23,13.20
2011,04,23,15,24,13.20
2011,04,23,15,25,13.30
2011,04,23,15,26,13.30
2011,04,23,15,27,13.40
2011,04,23,15,28,13.40
2011,04,23,15,29,13.50
2011,04,23,15,30,13.50
2011,04,23,15,31,13.50
2011,04,23,15,32,13.40
2011,04,23,15,33,13.40
2011,04,23,15,34,13.30
2011,04,23,15,35,13.30
2011,04,23,15,36,13.40
2011,04,23,15,37,13.50
2011,04,23,15,38,13.60
2011,04,23,15,39,13.60
2011,04,23,15,40,13.70
2011,04,23,15,41,13.60
2011,04,23,15,42,13.60
2011,04,23,15,43,13.50
2011,04,23,15,44,13.50
2011,04,23,15,45,13.50
2011,04,23,15,46,13.50
2011,04,23,15,47,13.40
2011,04,23,15,48,13.40
2011,04,23,15,49,13.30
2011,04,23,15,50,13.30
2011,04,23,15,51,13.40
2011,04,23,15,52,13.40
2011,04,23,15,53,13.50
2011,04,23,15,54,13.60
2011,04,23,15,55,13.60
2011,04,23,15,56,13.60
2011,04,23,15,57,13.60
2011,04,23,15,58,13.70
2011,04,23,15,59,13.70
2011,04,23,16,00,13.70
2011,04,23,16,01,13.70
2011,04,23,16,02,13.70
2011,04,23,16,03,13.60
2011,04,23,16,04,13.60
2011,04,23,16,05,13.60
2011,04,23,16,06,13.60
2011,04,23,16,07,13.70
2011,04,23,16,08,13.60
2011,04,23,16,09,13.50
2011,04,23,16,10,13.50
2011,04,23,16,11,13.40
2011,04,23,16,12,13.50
2011,04,23,16,13,13.40
2011,04,23,16,14,13.40
2011,04,23,16,15,13.40
2011,04,23,16,16,13.40
2011,04,23,16,17,13.40
2011,04,23,16,18,13.50
2011,04,23,16,19,13.60
2011,04,23,16,20,13.70
2011,04,23,16,21,13.80
2011,04,23,16,22,13.90
2011,04,23,16,23,14.00
2011,04,23,16,24,14.00
2011,04,23,16,25,14.00
2011,04,23,16,26,13.90
2011,04,23,16,27,13.90
2011,04,23,16,28,13.90
2011,04,23,16,29,13.80
2011,04,23,16,30,13.80
2011,04,23,16,31,13.70
2011,04,23,16,32,13.60
2011,04,23,16,33,13.70
2011,04,23,16,34,13.70
2011,04,23,16,35,13.80
2011,04,23,16,36,13.90
2011,04,23,16,37,13.90
2011,04,23,16,38,14.00
2011,04,23,16,39,14.10
2011,04,23,16,40,14.10
2011,04,23,16,41,14.10
2011,04,23,16,42,14.10
2011,04,23,16,43,14.10
2011,04,23,16,44,14.20
2011,04,23,16,45,14.10
2011,04,23,16,46,14.10
2011,04,23,16,47,14.10
2011,04,23,16,48,14.10
2011,04,23,16,49,14.10
2011,04,23,16,50,14.10
2011,04,23,16,51,14.10
2011,04,23,16,52,14.10
2011,04,23,16,53,14.20
2011,04,23,16,54,14.10
2011,04,23,16,55,14.00
2011,04,23,16,56,13.90
2011,04,23,16,57,13.80
2011,04,23,16,58,13.80
2011,04,23,16,59,13.80
2011,04,23,17,00,13.70
2011,04,23,17,01,13.70
2011,04,23,17,02,13.70
2011,04,23,17,03,13.70
2011,04,23,17,04,13.80
2011,04,23,17,05,13.80
2011,04,23,17,06,13.80
2011,04,23,17,07,13.80
2011,04,23,17,08,13.80
2011,04,23,17,09,13.70
2011,04,23,17,10,13.70
2011,04,23,17,11,13.70
2011,04,23,17,12,13.70
2011,04,23,17,13,13.70
2011,04,23,17,14,13.60
2011,04,23,17,15,13.60
2011,04,23,17,16,13.70
2011,04,23,17,17,13.70
2011,04,23,17,18,13.70
2011,04,23,17,19,13.80
2011,04,23,17,20,13.80
2011,04,23,17,21,13.80
2011,04,23,17,22,13.80
2011,04,23,17,23,13.90
2011,04,23,17,24,13.90
2011,04,23,17,25,14.00
2011,04,23,17,26,14.00
2011,04,23,17,27,13.90
2011,04,23,17,28,13.90
2011,04,23,17,29,13.80
2011,04,23,17,30,13.80
2011,04,23,17,31,13.80
2011,04,23,17,32,13.70
2011,04,23,17,33,13.70
2011,04,23,17,34,13.70
2011,04,23,17,35,13.60
2011,04,23,17,36,13.60
2011,04,23,17,37,13.60
2011,04,23,17,38,13.60
2011,04,23,17,39,13.60
2011,04,23,17,40,13.70
2011,04,23,17,41,13.70
2011,04,23,17,42,13.80
2011,04,23,17,43,13.80
2011,04,23,17,44,13.80
2011,04,23,17,45,13.80
2011,04,23,17,46,13.80
2011,04,23,17,47,13.80
2011,04,23,17,48,13.70
2011,04,23,17,49,13.70
2011,04,23,17,50,13.70